Orbital Elements at Epoch 2459155.5 (2020-Nov-02.0) TDB
Reference: JPL 10 (heliocentric ecliptic J2000)
Element | Value | Uncertainty (1-sigma) | Units |
e | 1.000438147732024 | 6.793e-06 | |
a | -3014.312963448804 | 46.736 | au |
q | 1.320714388545961 | 2.1135e-06 | au |
i | 29.70370762469213 | 2.63e-05 | deg |
node | 279.9817072519792 | 6.6917e-05 | deg |
peri | 186.7729886499378 | 8.1381e-05 | deg |
M | -.0007756059032918327 | 1.8037e-05 | deg |
tp | 2459285.732549903141 (2021-Mar-12.23254990) | 0.00033779 | TDB |
period | n/a n/a | n/a n/a | d yr |
n | 5.955545705498977E-6 | 1.3851e-07 | deg/d |
Q | n/a | n/a | au |
|
| | Orbit Determination Parameters
Additional Information
|